Regional Weather Roundup
Issued by NWS Charleston, SC

Current Version | Previous Version | Graphics & Text | Print | Product List | Glossary On
Versions: 1 2 3 4 5 6 7 8 9 10 11 12 13 14 15 16 17 18 19 20 21 22 23 24 25 26 27 28 29 30 31 32 33 34 35 36 37 38 39 40 41 42 43 44 45 46 47 48 49 50
000 ASUS42 KCHS 290328 RWRCHS REGIONAL WEATHER ROUNDUP NATIONAL WEATHER SERVICE CHARLESTON SC 1100 PM EDT WED SEP 28 2016 NOTE: "FAIR" INDICATES FEW OR NO CLOUDS BELOW 12,000 FEET WITH NO SIGNIFICANT WEATHER AND/OR OBSTRUCTIONS TO VISIBILITY. NOT ALL STATIONS ARE QUALITY CONTROLLED. USE DATA WITH CAUTION... ESPECIALLY DEWPOINT OBSERVATIONS. SCZ027-030-031-034>040-042>050-290400- ...SOUTHEAST SOUTH CAROLINA... CITY SKY/WX TMP DP RH WIND PRES REMARKS N CHARLESTON PTCLDY 79 74 84 S10 29.95F WATERFRONT PRK N/A 81 76 85 S9 29.94R MOUNT PLEASANT FAIR 81 75 83 S7 29.97R JOHNS ISLAND FAIR 81 75 83 S9 29.96S PINOPOLIS N/A 77 75 94 VRB3 29.88S MONCKS CORNER FAIR 75 73 94 S3 29.95S SUMMERVILLE NOT AVBL BEAUFORT MCAS PTCLDY 80 73 79 S5 29.96R BEAUFORT ARPT FAIR 79 73 83 S9 29.96S HILTON HEAD IS CLEAR 81 77 89 S10G16 29.97S WALTERBORO CLEAR 79 79 100 S6 29.96S ALLENDALE FAIR 79 73 83 S8 29.93S ...SOUTHERN MIDLANDS AND PEE DEE... CITY SKY/WX TMP DP RH WIND PRES REMARKS GEORGETOWN FAIR 75 72 88 S3 29.98S KINGSTREE MOCLDY 75 72 88 SE8 29.95S ORANGEBURG CLEAR 77 71 82 S8 29.93S BARNWELL NOT AVBL AIKEN FAIR 73 68 83 S3 29.96R MANNING FAIR 77 72 83 S6 29.95R COLUMBIA PTCLDY 78 72 81 W14G20 29.93R SUMTER CLEAR 77 71 83 S9 29.91R FLORENCE PTCLDY 77 73 87 S9 29.95R MYRTLE BEACH MOCLDY 81 68 65 S15 N/A N MYRTLE BEACH PTCLDY 80 73 79 S10 29.98R $$ GAZ063-065-086>088-099>101-113>116-118-119-134>141-150-290400- ...SOUTHEAST GEORGIA... CITY SKY/WX TMP DP RH WIND PRES REMARKS SAVANNAH ARPT MOCLDY 78 73 84 S7 29.96S HUNTER AAF PTCLDY 79 78 96 S6 29.94R FORT STEWART CLOUDY 77 71 83 CALM 29.94R STATESBORO PTCLDY 74 74 98 CALM 29.94F SYLVANIA NOT AVBL CLAXTON FAIR 75 74 98 CALM 29.95S ...CSRA...CENTRAL AND FAR SOUTHEAST GEORGIA... CITY SKY/WX TMP DP RH WIND PRES REMARKS THOMSON PTCLDY 75 70 85 CALM 29.96S AUGUSTA-BUSH PTCLDY 79 69 71 S12 29.90S AUGUSTA-DANIEL PTCLDY 80 68 66 SW8 29.92S SWAINSBORO MOCLDY 79 70 73 SW6 29.95S VIDALIA CLEAR 77 73 88 SW6 29.95S EASTMAN FAIR 79 64 59 SW5 29.97S HAZLEHURST FAIR 79 75 87 N6 29.95S ALMA CLEAR 76 72 87 S5 29.96S WAYCROSS PTCLDY 79 76 92 S6 29.98R JESUP FAIR 77 73 88 SW5 29.97S BAXLEY FAIR 77 77 100 S5 29.96S BRUNSWICK PTCLDY 79 73 83 SW7 29.98S SAINT SIMONS PTCLDY 79 73 82 SW10 29.97S $$ SCZ027-028-034-036>038-045-046-048>050-GAZ119-141-290400- ...LAKE AND SUPPLEMENTAL COASTAL OBSERVATIONS... STATION/POSITION TIME TEMP WIND PRES WAVE SWELL AIR SEA DIR/SP/G HT/PER HT/PER/DIR (UTC) (F) (DEG/KT/KT) (MB) (FT/S) (FT/S/D) WINYAH BAY 0230 80 180/ 8 1014.0S LAKE MURRAY 0230 79 220/ 5/ 7 1012.5R ACE BASIN NERRS 0245 80 CALM 1015.0S FORT PULASKI 0300 81 82 200/ 8/ 12 1015.0 SAPELO ISLAND 0300 78 200/ 8 1015.0 $$ ANZ835-935-AMZ111-154-330-350-352-354-370-450-454-472-290400- ...C-MAN AND BUOY OBSERVATIONS... STATION/POSITION TIME TEMP WIND PRES WAVE SWELL AIR SEA DIR/SP/G HT/PER HT/PER/DIR (UTC) (F) (DEG/KT/KT) (MB) (FT/S) (FT/S/D) BUOY 41004 0250 83 82 190/ 12/ 14 1014.6F 3/11 2/ 80/11 BUOY 41008 0250 82 82 210/ 16/ 17 1014.4S 3/ 4 2/200/11 FOLLY BEACH CMAN 0300 81 190/ 15/ 17 1014.7F CAPERS NEARSHORE 0208 81 81 200/ 14/ 17 1014.7R FRIPP NEARSHORE 0308 81 81 200/ 16/ 21 1014.7R STATION/POSITION TIME TEMP WIND PRES WAVE SWELL AIR SEA DIR/SP/G HT/PER HT/PER/DIR (UTC) (F) (DEG/KT/KT) (MB) (FT/S) (FT/S/D) 5E ST. MARYS GA 0301 82 N/A 2/13 2/110/13 FRYING PAN BUOY 0310 82 82 160/ 12/ 14 1015.3 BUOY 41025 0250 81 83 140/ 14/ 17 1016.1F 4/ 7 3/ 90/ 8 CAPE LOOKOUT NC 0300 80 150/ 10/ 11 1015.5F BUOY 41002 0250 82 83 200/ 14/ 16 1017.0S 4/ 6 2/ 80/11 BUOY 41010 NOT AVBL ST AUGUSTINE FL 0300 73 84 230/ 5/ 7 1016.7F $$

USA.gov is the U.S. government's official web portal to all federal, state and local government web resources and services.